Location: Janeiro
(34.9957°N, 76.7652°W)
Time: 16:52:19
(UTC+00:00)

Shenzhou-11 Module - Pass Details

Date: 14 December 2019
Orbit: 301 x 316 km, 42.8° (Epoch: 26 January)

Event Time Altitude Azimuth Distance (km) Brightness Sun altitude
Rises 22:33:51 0° 297° (WNW) 2,070 6.4 -7.7°
Reaches altitude 10° 22:35:51 10° 298° (WNW) 1,233 5.2 -8.1°
Maximum altitude 22:38:37 89° 17° (NNE) 324 1.6 -8.6°
Drops below altitude 10° 22:41:21 10° 118° (ESE) 1,219 4.2 -9.2°
Enters shadow 22:42:11 - 118° (ESE) 1,566 4.8 -9.3°
